Location: *
(45.9500°N, 9.0833°E)
Time: 20:11:33
(UTC+00:00)

Vanguard 2 Rocket - Pass Details

Date: 22 June 2021
Orbit: 555 x 3325 km, 32.9° (Epoch: 30 July)

Event Time Altitude Azimuth Distance (km) Brightness Sun altitude
Rises 21:16:42 0° 266° (W) 7,278 11.9 -14.7°
Reaches altitude 10° 21:22:08 10° 261° (W) 6,116 11.4 -15.2°
Maximum altitude 21:38:49 45° 198° (SSW) 3,100 9.2 -16.5°
Enters shadow 21:47:11 20° 138° (SE) 3,563 9.3 -17.1°
Drops below altitude 10° 21:49:36 10° 130° (SE) 4,039 - -17.3°
Sets 21:52:24 0° 124° (SE) 4,706 - -17.5°
